CW3660 Weather Reports


Display with metric or nautical units.
time (UTC)temp
F
wind
direction
speed
MPH
gust
MPH
rain 1hr
in
rain 24hr
in
rain mn
in
humidity
%
barometer
mb
20260510231015 60 0.0 3.0 0.02 0.13 0.03 82 1012.0
20260510230035 60 315 1.0 3.0 0.02 0.13 0.03 81 1011.8
20260510225015 61 315 2.0 6.0 0.02 0.14 0.03 80 1011.7
20260510224015 61 315 3.0 8.0 0.02 0.15 0.03 79 1011.7
20260510223015 63 270 5.0 14.0 0.02 0.15 0.03 76 1011.8
20260510222016 67 270 1.0 3.0 0.00 0.14 0.01 70 1011.3
20260510221015 67 0.0 2.0 0.00 0.14 0.01 68 1010.8
20260510220015 67 315 1.0 4.0 0.00 0.15 0.01 65 1010.7
20260510215035 68 315 1.0 3.0 0.00 0.15 0.01 64 1010.5
20260510214017 68 315 1.0 3.0 0.00 0.16 0.01 63 1010.5
20260510213018 68 315 2.0 7.0 0.00 0.17 0.01 62 1010.5
20260510212017 69 293 4.0 12.0 0.00 0.20 0.01 60 1010.6
20260510211018 71 293 3.0 6.0 0.00 0.23 0.01 56 1010.7
20260510210017 72 225 2.0 6.0 0.00 0.26 0.01 57 1010.6
20260510205017 71 225 2.0 6.0 0.00 0.27 0.01 56 1010.3
20260510204017 71 203 2.0 8.0 0.00 0.30 0.01 56 1010.2
20260510203017 71 248 3.0 8.0 0.00 0.32 0.01 56 1010.1
20260510202017 71 225 2.0 6.0 0.00 0.32 0.01 57 1010.4
20260510201017 71 203 3.0 8.0 0.00 0.32 0.01 58 1010.3
20260510200017 72 180 3.0 9.0 0.00 0.32 0.01 56 1010.3
20260510195017 73 248 3.0 10.0 0.00 0.32 0.01 54 1010.3
20260510194018 73 225 5.0 12.0 0.00 0.32 0.01 54 1010.5
20260510193018 73 203 4.0 15.0 0.00 0.32 0.01 55 1010.6
20260510192017 73 203 5.0 15.0 0.00 0.32 0.01 56 1010.8
20260510191038 73 225 5.0 14.0 0.00 0.32 0.01 54 1010.7
20260510190017 73 158 6.0 15.0 0.00 0.32 0.01 53 1010.8
20260510185017 73 180 5.0 11.0 0.00 0.32 0.01 55 1010.8
20260510184017 73 203 5.0 13.0 0.00 0.32 0.01 54 1010.9
20260510183017 72 203 5.0 17.0 0.00 0.32 0.01 56 1011.0
20260510182017 73 248 4.0 14.0 0.00 0.32 0.01 54 1011.1
20260510181018 72 158 6.0 16.0 0.00 0.32 0.01 55 1011.2
20260510180017 72 158 4.0 11.0 0.00 0.32 0.01 59 1011.2
20260510175017 70 203 4.0 12.0 0.00 0.32 0.01 62 1011.5
20260510174017 70 158 3.0 12.0 0.00 0.33 0.01 62 1011.6
20260510173017 70 180 4.0 12.0 0.00 0.33 0.01 62 1011.6
20260510172017 70 203 3.0 12.0 0.00 0.33 0.01 62 1011.8
20260510171017 69 225 3.0 7.0 0.00 0.33 0.01 65 1011.8
20260510170017 69 248 3.0 7.0 0.00 0.33 0.01 63 1011.8
20260510165017 69 203 4.0 16.0 0.00 0.33 0.01 64 1011.9
20260510164017 70 248 3.0 13.0 0.00 0.33 0.01 64 1011.9
20260510163037 69 203 4.0 12.0 0.00 0.34 0.01 66 1012.0
20260510162017 68 180 4.0 12.0 0.00 0.34 0.01 66 1012.1
20260510161016 68 180 4.0 12.0 0.00 0.35 0.01 66 1012.0
20260510160017 67 203 4.0 12.0 0.00 0.35 0.01 67 1012.2
20260510155016 66 203 4.0 10.0 0.00 0.36 0.01 70 1012.2
20260510154016 65 225 3.0 8.0 0.00 0.37 0.01 71 1012.3
20260510153017 65 180 4.0 11.0 0.00 0.37 0.01 72 1012.5
20260510152017 64 158 4.0 10.0 0.00 0.37 0.01 75 1012.4
20260510151017 63 180 2.0 6.0 0.00 0.37 0.01 78 1012.5
20260510150017 62 248 2.0 7.0 0.00 0.38 0.01 80 1012.5
20260510145016 61 270 3.0 8.0 0.00 0.38 0.01 81 1012.5
20260510144017 61 225 3.0 9.0 0.00 0.39 0.01 80 1012.7
20260510143016 60 158 2.0 6.0 0.00 0.39 0.01 83 1012.7
20260510142016 60 0.0 1.0 0.00 0.40 0.01 85 1012.6
20260510141036 59 0.0 2.0 0.00 0.40 0.01 86 1012.7
20260510140037 58 225 1.0 3.0 0.00 0.41 0.01 87 1012.7
20260510135037 58 225 1.0 3.0 0.00 0.41 0.01 90 1012.7
20260510134016 57 248 1.0 4.0 0.00 0.41 0.01 92 1012.6
20260510133037 56 225 1.0 5.0 0.00 0.42 0.01 93 1012.7
20260510132036 55 225 1.0 4.0 0.00 0.42 0.01 95 1012.6
20260510131016 54 180 1.0 5.0 0.00 0.42 0.01 95 1012.6
20260510130016 54 338 1.0 5.0 0.00 0.43 0.01 95 1012.7
20260510125036 53 180 1.0 4.0 0.00 0.43 0.01 96 1012.7
20260510124017 53 225 1.0 4.0 0.00 0.43 0.01 96 1012.7
20260510123017 53 180 2.0 7.0 0.00 0.43 0.01 96 1012.9
20260510122037 53 180 2.0 6.0 0.00 0.43 0.01 96 1012.7
20260510121016 53 225 2.0 5.0 0.00 0.43 0.01 96 1012.5
20260510120016 52 225 1.0 4.0 0.00 0.43 0.01 96 1012.6
20260510115016 52 180 1.0 4.0 0.00 0.43 0.01 96 1012.5
20260510114016 52 203 1.0 5.0 0.00 0.43 0.01 96 1012.5
20260510113036 51 0.0 1.0 0.00 0.43 0.01 96 1012.6
20260510112016 51 0.0 3.0 0.00 0.43 0.01 96 1012.5
20260510111016 51 158 2.0 5.0 0.00 0.43 0.01 96 1012.2
20260510110056 51 158 1.0 4.0 0.00 0.43 0.01 96 1011.9
20260510105016 50 180 1.0 5.0 0.00 0.43 0.01 96 1012.2
20260510104017 50 135 2.0 8.0 0.00 0.43 0.01 96 1011.8
20260510103016 50 158 2.0 6.0 0.00 0.43 0.01 96 1011.9
20260510102016 50 158 3.0 5.0 0.00 0.43 0.01 96 1012.0
20260510101016 50 158 2.0 5.0 0.00 0.43 0.01 96 1011.9
20260510100016 49 158 2.0 5.0 0.00 0.43 0.01 96 1011.8
20260510095016 49 180 1.0 3.0 0.00 0.43 0.01 96 1012.2
20260510094016 49 180 1.0 3.0 0.00 0.43 0.01 96 1012.0
20260510093016 49 0.0 2.0 0.00 0.43 0.01 96 1011.9
20260510092016 49 0.0 1.0 0.00 0.43 0.01 96 1011.9
20260510091016 49 0.0 0.0 0.00 0.43 0.01 96 1011.8
20260510090016 49 0.0 1.0 0.00 0.43 0.01 96 1011.7
20260510085016 49 0.0 1.0 0.00 0.43 0.01 96 1011.7
20260510084016 49 0.0 1.0 0.00 0.43 0.01 96 1011.6
20260510083016 49 0.0 1.0 0.00 0.43 0.01 96 1011.5
20260510082016 49 0.0 3.0 0.00 0.43 0.01 96 1011.5
20260510081016 49 180 1.0 4.0 0.00 0.43 0.01 96 1011.3
20260510080016 49 180 1.0 3.0 0.00 0.43 0.01 96 1011.2
20260510075036 49 180 1.0 3.0 0.00 0.43 0.01 96 1011.3
20260510074016 50 158 2.0 3.0 0.00 0.43 0.01 96 1011.3
20260510073016 50 158 1.0 4.0 0.01 0.43 0.01 96 1011.3
20260510072036 50 180 2.0 4.0 0.01 0.43 0.01 96 1011.0
20260510071016 50 158 1.0 3.0 0.01 0.43 0.01 96 1010.9
20260510070036 50 158 1.0 3.0 0.01 0.43 0.01 96 1010.8
20260510065016 50 158 1.0 3.0 0.01 0.43 0.01 96 1010.8
20260510064015 51 158 1.0 3.0 0.01 0.43 0.01 96 1011.3
20260510063016 51 0.0 2.0 0.00 0.42 0.00 96 1011.3
20260510062016 51 0.0 0.0 0.00 0.42 0.00 96 1011.3
20260510061015 51 0.0 0.0 0.00 0.42 0.00 96 1011.4
20260510060016 51 0.0 1.0 0.00 0.42 0.00 96 1011.1
20260510055016 51 0.0 2.0 0.00 0.42 0.00 96 1011.5
20260510054056 51 0.0 1.0 0.00 0.42 0.00 96 1011.4
20260510053016 51 0.0 1.0 0.00 0.42 0.00 96 1011.6
20260510052016 51 0.0 1.0 0.00 0.42 0.00 96 1011.7
20260510051015 51 0.0 1.0 0.00 0.42 0.00 96 1011.6
20260510050015 51 0.0 2.0 0.00 0.42 0.00 96 1011.6
20260510045015 51 0.0 1.0 0.00 0.42 0.00 96 1011.8
20260510044015 51 0.0 2.0 0.00 0.42 0.00 96 1011.9
20260510043035 51 0.0 1.0 0.00 0.42 0.00 96 1011.9
20260510042015 51 0.0 0.0 0.00 0.42 0.00 96 1011.8
20260510041015 51 0.0 1.0 0.00 0.42 0.00 96 1011.8
20260510040015 51 0.0 1.0 0.00 0.42 0.42 96 1011.4
20260510035016 51 158 1.0 3.0 0.00 0.42 0.42 96 1011.8
20260510034016 51 158 1.0 4.0 0.00 0.42 0.42 96 1011.8
20260510033016 51 180 2.0 5.0 0.00 0.42 0.42 96 1011.8
20260510032016 51 158 2.0 5.0 0.00 0.42 0.42 96 1012.0
20260510031016 51 158 1.0 5.0 0.00 0.42 0.42 96 1012.2
20260510030017 51 158 2.0 4.0 0.00 0.42 0.42 96 1012.3
20260510025016 51 158 2.0 5.0 0.00 0.42 0.42 96 1012.3
20260510024016 51 158 1.0 2.0 0.00 0.42 0.42 96 1012.4
20260510023015 51 0.0 2.0 0.00 0.42 0.42 96 1012.4
20260510022016 51 0.0 1.0 0.00 0.42 0.42 96 1012.4
20260510021016 51 158 1.0 3.0 0.00 0.42 0.42 96 1012.4
20260510020016 51 158 1.0 3.0 0.00 0.42 0.42 96 1012.5
20260510015016 51 180 1.0 3.0 0.00 0.42 0.42 96 1012.5
20260510014016 50 135 1.0 3.0 0.00 0.42 0.42 95 1012.6
20260510013016 50 0.0 1.0 0.00 0.42 0.42 95 1012.5
20260510012015 50 158 2.0 5.0 0.01 0.42 0.42 95 1012.3
20260510011016 49 135 2.0 8.0 0.02 0.42 0.42 96 1012.1
20260510010016 49 135 2.0 5.0 0.03 0.42 0.42 95 1012.0
20260510005016 49 135 2.0 5.0 0.04 0.42 0.42 95 1012.0
20260510004016 48 158 1.0 5.0 0.06 0.42 0.42 95 1012.2
20260510003016 48 113 1.0 4.0 0.07 0.42 0.42 95 1012.3
20260510002015 48 113 3.0 8.0 0.08 0.41 0.41 95 1012.2
20260510001016 48 135 3.0 7.0 0.08 0.40 0.40 95 1012.3
20260510000016 47 158 2.0 6.0 0.07 0.39 0.39 95 1012.5
20260509235016 47 135 2.0 5.0 0.07 0.38 0.38 95 1012.4
20260509234015 47 135 2.0 4.0 0.06 0.36 0.36 95 1012.7
20260509233015 47 135 1.0 4.0 0.05 0.35 0.35 94 1012.5
20260509232015 47 135 1.0 3.0 0.04 0.33 0.33 94 1012.5